Penn Yan, NY

2:25 AM EDT on April 25, 2017 (GMT -0400)
Penn Yan

Weather History for KPEO - November, 2013

Change the Weather History Date:

Sunday, November 24, 2013

  Actual Average (KITH) Record (KITH)
Temperature  
Mean Temperature 18 °F -  
Max Temperature 21 °F 44 °F 68 °F (2014)
Min Temperature 15 °F 29 °F 5 °F (1956)
Degree Days  
Heating Degree Days 47    
Moisture  
Dew Point 9 °F    
Average Humidity 69    
Maximum Humidity 81    
Minimum Humidity 50    
Precipitation  
Precipitation 0.00 in - - ()
Sea Level Pressure  
Sea Level Pressure 30.29 in    
Wind  
Wind Speed 14 mph (WNW)    
Max Wind Speed 21 mph    
Max Gust Speed 32 mph    
Visibility 6 miles    
Events Snow    
Averages and records for this station are not official NWS values.
T = Trace of Precipitation, MM = Missing Value Source: NWS Daily Summary

Daily Weather History Graph

Daily Weather History Graph

Search for Another Location

Airport or City:

Trip Planner

Search our weather history database for the weather conditions in past years. The results will help you decide how hot, cold, wet, or windy it might be!

Date:

Astronomy

Nov. 24, 2013 Rise Set
Actual Time 7:10 AM EST 4:38 PM EST
Civil Twilight 6:39 AM EST 5:09 PM EST
Nautical Twilight 6:05 AM EST 5:44 PM EST
Astronomical Twilight 5:31 AM EST 6:18 PM EST
Moon 11:06 PM EST (11/24) 11:53 AM EST (11/24)
Length of Visible Light 10h 29m
Length of Day
9h 27m
Waning Gibbous, 61% of the Moon is Illuminated
Nov 24
Waning Gibbous
Nov 25
Last Quarter
Dec 2
New
Dec 9
First Quarter
Dec 17
Full

Hourly Weather History & Observations

Time (EST) Temp. Windchill Dew Point Humidity Pressure Visibility Wind Dir Wind Speed Gust Speed Precip Events Conditions
12:53 AM 17.1 °F 2.5 °F 7.0 °F 65% 30.14 in 10.0 mi WNW 15.0 mph 24.2 mph N/A   Mostly Cloudy
1:25 AM 17.6 °F 2.7 °F 6.8 °F 63% 30.11 in 10.0 mi WNW 16.1 mph 29.9 mph N/A   Mostly Cloudy
1:38 AM 17.6 °F 0.9 °F 6.8 °F 63% 30.11 in 6.0 mi WNW 20.7 mph 32.2 mph N/A   Overcast
1:53 AM 17.1 °F 1.0 °F 7.0 °F 65% 30.17 in 9.0 mi WNW 18.4 mph 28.8 mph 0.00 in   Overcast
2:21 AM 15.8 °F 0.3 °F 8.6 °F 73% 30.13 in 2.0 mi West 16.1 mph 24.2 mph 0.00 in Snow Light Snow
2:33 AM 15.8 °F 0.9 °F 8.6 °F 73% 30.13 in 3.0 mi WNW 15.0 mph 24.2 mph 0.00 in Snow Light Snow
2:53 AM 16.0 °F 1.1 °F 8.1 °F 71% 30.18 in 3.0 mi West 15.0 mph 23.0 mph 0.00 in Snow Light Snow
3:53 AM 15.1 °F -1.6 °F 7.0 °F 70% 30.19 in 9.0 mi West 18.4 mph 32.2 mph 0.00 in   Overcast
4:53 AM 15.1 °F 1.8 °F 8.1 °F 74% 30.22 in 4.0 mi WNW 11.5 mph 25.3 mph 0.00 in Snow Light Snow
5:53 AM 15.1 °F -0.1 °F 8.1 °F 74% 30.23 in 10.0 mi West 15.0 mph 25.3 mph 0.00 in   Overcast
6:00 AM 15.8 °F 2.1 °F 8.6 °F 73% 30.18 in 10.0 mi West 12.7 mph 21.9 mph N/A   Overcast
6:53 AM 15.1 °F -0.6 °F 7.0 °F 70% 30.25 in 9.0 mi West 16.1 mph 27.6 mph 0.00 in   Overcast
7:35 AM 15.8 °F -0.2 °F 8.6 °F 73% 30.21 in 2.0 mi West 17.3 mph 24.2 mph 0.00 in Snow Light Snow
7:43 AM 15.8 °F 2.7 °F 8.6 °F 73% 30.22 in 1.8 mi WNW 11.5 mph 26.5 mph 0.00 in Snow Light Snow
7:46 AM 15.8 °F 2.7 °F 8.6 °F 73% 30.22 in 2.5 mi WNW 11.5 mph 26.5 mph 0.00 in Snow Light Snow
7:53 AM 16.0 °F 2.3 °F 8.1 °F 71% 30.28 in 1.8 mi West 12.7 mph 25.3 mph 0.00 in Snow Light Snow
8:04 AM 15.8 °F 1.4 °F 10.4 °F 79% 30.23 in 0.2 mi WNW 13.8 mph 20.7 mph 0.00 in Snow Heavy Snow
8:14 AM 15.8 °F 1.4 °F 10.4 °F 79% 30.24 in 0.2 mi West 13.8 mph 20.7 mph 0.00 in Snow Heavy Snow
8:53 AM 17.1 °F 4.3 °F 12.0 °F 81% 30.32 in 0.2 mi WNW 11.5 mph 23.0 mph 0.00 in Snow Heavy Snow
9:27 AM 17.6 °F 3.2 °F 10.4 °F 73% 30.28 in 1.0 mi WNW 15.0 mph 26.5 mph 0.00 in Snow Light Snow
9:46 AM 17.6 °F 4.3 °F 10.4 °F 73% 30.29 in 2.5 mi WNW 12.7 mph 25.3 mph 0.00 in Snow Light Snow
9:53 AM 18.0 °F 6.1 °F 10.0 °F 71% 30.34 in 2.5 mi WNW 10.4 mph 23.0 mph 0.00 in Snow Light Snow
10:12 AM 19.4 °F 5.0 °F 10.4 °F 68% 30.30 in 3.0 mi WNW 16.1 mph 28.8 mph 0.00 in Snow Light Snow
10:53 AM 19.0 °F 6.8 °F 10.0 °F 68% 30.35 in 4.0 mi West 11.5 mph 25.3 mph 0.00 in Snow Light Snow
11:51 AM 21.2 °F 8.9 °F 8.6 °F 58% 30.29 in 10.0 mi WNW 12.7 mph 23.0 mph 0.00 in   Scattered Clouds
11:53 AM 21.9 °F 8.7 °F 9.0 °F 58% 30.35 in 10.0 mi WNW 15.0 mph 23.0 mph 0.00 in   Partly Cloudy
12:12 PM 21.2 °F 8.9 °F 8.6 °F 58% 30.30 in 10.0 mi West 12.7 mph 21.9 mph N/A   Mostly Cloudy
12:53 PM 19.9 °F 6.7 °F 6.1 °F 55% 30.35 in 10.0 mi WNW 13.8 mph 24.2 mph 0.00 in   Mostly Cloudy
1:02 PM 21.2 °F 10.1 °F 8.6 °F 58% 30.29 in 10.0 mi WNW 10.4 mph 18.4 mph N/A   Scattered Clouds
1:53 PM 21.9 °F 8.2 °F 7.0 °F 53% 30.35 in 10.0 mi West 16.1 mph 27.6 mph N/A   Mostly Cloudy
2:53 PM 21.0 °F 7.1 °F 5.0 °F 50% 30.35 in 10.0 mi NW 16.1 mph 26.5 mph N/A   Mostly Cloudy
3:53 PM 19.9 °F 7.9 °F 8.1 °F 60% 30.37 in 10.0 mi WNW 11.5 mph 19.6 mph N/A   Mostly Cloudy
4:26 PM 19.4 °F 8.6 °F 10.4 °F 68% 30.33 in 2.0 mi WNW 9.2 mph 19.6 mph 0.00 in Snow Light Snow
4:29 PM 19.4 °F 8.6 °F 12.2 °F 74% 30.33 in 1.8 mi WNW 9.2 mph 19.6 mph 0.00 in Snow Light Snow
4:33 PM 19.4 °F 5.5 °F 12.2 °F 74% 30.32 in 2.5 mi West 15.0 mph 21.9 mph 0.00 in Snow Light Snow
4:40 PM 19.4 °F 7.2 °F 10.4 °F 68% 30.32 in 8.0 mi West 11.5 mph 21.9 mph 0.00 in   Overcast
4:53 PM 19.0 °F 8.2 °F 10.9 °F 71% 30.38 in 10.0 mi West 9.2 mph - 0.00 in   Mostly Cloudy
5:53 PM 18.0 °F 9.8 °F 9.0 °F 68% 30.40 in 10.0 mi NW 5.8 mph - N/A   Mostly Cloudy
6:18 PM 17.6 °F 7.3 °F 10.4 °F 73% 30.35 in 10.0 mi West 8.1 mph - N/A   Overcast
6:53 PM 18.0 °F 6.9 °F 10.9 °F 74% 30.41 in 10.0 mi West 9.2 mph - N/A   Mostly Cloudy
7:02 PM 17.6 °F 9.3 °F 10.4 °F 73% 30.35 in 10.0 mi West 5.8 mph - N/A   Scattered Clouds
7:53 PM 19.0 °F 9.0 °F 10.0 °F 68% 30.42 in 10.0 mi West 8.1 mph - N/A   Clear
8:22 PM 19.4 °F 10.4 °F 12.2 °F 74% 30.36 in 3.0 mi West 6.9 mph 16.1 mph 0.00 in Snow Light Snow
8:53 PM 19.0 °F 10.0 °F 12.0 °F 74% 30.41 in 10.0 mi Variable 6.9 mph - 0.00 in   Mostly Cloudy
9:04 PM 19.4 °F 10.4 °F 10.4 °F 68% 30.35 in 10.0 mi West 6.9 mph 16.1 mph N/A   Mostly Cloudy
9:53 PM 19.0 °F 6.1 °F 10.0 °F 68% 30.40 in 10.0 mi West 12.7 mph - N/A   Scattered Clouds
10:53 PM 19.0 °F 8.2 °F 10.0 °F 68% 30.41 in 10.0 mi West 9.2 mph - N/A   Mostly Cloudy
11:53 PM 19.9 °F 9.3 °F 10.0 °F 65% 30.41 in 10.0 mi WSW 9.2 mph - N/A   Overcast